[[{"header":{"parameterUnit":"m.s-1","parameterCategory":2,"la1":30.2991,"la2":30.254,"lo1":-89.0895,"lo2":-89.0444,"dy":0.0017,"dx":0.0017,"nx":28,"ny":28,"refTime":"2024-07-28T03:00:00:Z","depth":"0","parameterNumber":2,"parameterNumberName":"U-component_of_CURRENTS"},"data":[0,0,0,0,0,0,0,0,0,0,0,0,0,0,0,0,0,0,0,0,0,0,0,0,0,0,0,0,0,0,0,0,0,0,0,0,0,0,0,0,0,0,0,0,0,0,0,0,0,0,0,0,0,0,0,0,0,0,-0.1161,-0.1163,0,-0.1322,-0.1323,-0.1324,-0.1278,-0.1275,-0.1273,-0.127,-0.1189,-0.1189,-0.119,0,0,0,0,0,0,0,0,0,0,0,0,0,-0.1016,-0.1017,-0.116,-0.1163,-0.1166,-0.1322,-0.1323,-0.1325,-0.1278,-0.1275,-0.1272,-0.1269,-0.1189,-0.1189,-0.119,0,0,0,0,0,0,0,0,0,0,0,0,0,-0.111,-0.1017,-0.116,-0.1168,-0.1171,-0.1322,-0.1323,-0.1325,-0.1279,-0.1275,-0.1271,-0.1268,-0.1189,-0.1189,-0.119,-0.1268,0,0,-0.1191,-0.1191,0,0,0,0,0,0,0,0,-0.1104,-0.1114,-0.1164,-0.1168,-0.1171,-0.1283,-0.1244,-0.1297,-0.128,-0.1229,-0.127,-0.1266,-0.1206,-0.1205,-0.1236,-0.1265,-0.1261,-0.1191,-0.1191,-0.1191,-0.1191,0,0,0,0,0,0,0,-0.1098,-0.1108,-0.1216,-0.1167,-0.1172,-0.1234,-0.124,-0.1255,-0.1226,-0.1233,-0.1232,-0.1265,-0.1205,-0.1236,-0.1233,-0.126,-0.1191,-0.1191,-0.1191,-0.1191,-0.1338,-0.1342,0,0,0,0,0,0,-0.1089,-0.1101,-0.1211,-0.1222,-0.1137,-0.124,-0.1246,-0.1244,-0.1231,-0.123,-0.1268,-0.1262,-0.1237,-0.1232,-0.1229,-0.1282,-0.1191,-0.1191,-0.1191,-0.1335,-0.1339,-0.1343,0,0,0,0,0,0,-0.1084,-0.1095,-0.1204,-0.1174,-0.1193,-0.1245,-0.1244,-0.125,-0.1261,-0.1262,-0.1253,-0.1272,-0.1234,-0.1229,-0.1242,-0.1279,-0.1191,-0.1192,-0.133,-0.1336,-0.1341,-0.1412,0,0,0,0,0,0,-0.1079,-0.1092,-0.1097,-0.1172,-0.1195,-0.1283,-0.1249,-0.1256,-0.1293,-0.1286,-0.1264,-0.1254,-0.123,-0.1242,-0.1243,-0.1278,-0.1192,-0.1325,-0.1333,-0.1339,-0.1405,-0.1419,-0.1431,0,0,0,0,0,-0.1072,-0.1076,-0.1095,-0.111,-0.1194,-0.1286,-0.1303,-0.1323,-0.1296,-0.1314,-0.1303,-0.1253,-0.1287,-0.1246,-0.1245,-0.1281,-0.1322,-0.1331,-0.1339,-0.1399,-0.1416,-0.1431,0,0,0,0,0,0,-0.1034,-0.1076,-0.1096,-0.1118,-0.12,-0.128,-0.1311,-0.1328,-0.1343,-0.1321,-0.1294,-0.1286,-0.1309,-0.1305,-0.126,-0.1352,-0.13,-0.1309,-0.1346,-0.1362,-0.1376,-0.1341,-0.1192,0,0,0,0,0,-0.1032,-0.1028,-0.1114,-0.1141,-0.1177,-0.1248,-0.129,-0.131,-0.1341,-0.1342,-0.1334,-0.1337,-0.1357,-0.136,-0.137,-0.1423,-0.138,-0.1454,-0.1467,-0.1478,-0.1456,-0.1464,-0.1474,-0.137,-0.137,-0.137,0,0,-0.1034,-0.1057,-0.1062,-0.1133,-0.1192,-0.1256,-0.1258,-0.1322,-0.1364,-0.1332,-0.1362,-0.1371,-0.1381,-0.1431,-0.1444,-0.1422,-0.1486,-0.1489,-0.1497,-0.1468,-0.1474,-0.1483,-0.1491,-0.1376,-0.1375,-0.1374,0,0,-0.1053,-0.1053,-0.1073,-0.1129,-0.122,-0.1263,-0.1279,-0.1361,-0.1376,-0.1434,-0.1422,-0.1455,-0.1484,-0.1511,-0.1525,-0.1627,-0.1548,-0.164,-0.1681,-0.1691,-0.1698,-0.1703,-0.1645,-0.1645,-0.1656,-0.1656,-0.1656,0,-0.1064,-0.1085,-0.1107,-0.1157,-0.1204,-0.126,-0.1319,-0.1365,-0.1439,-0.146,-0.1438,-0.1517,-0.1523,-0.1595,-0.1633,-0.165,-0.1615,-0.1611,-0.1702,-0.1707,-0.1711,-0.165,-0.1649,-0.166,-0.166,-0.166,-0.1659,0,-0.1116,-0.1134,-0.1156,-0.1213,-0.1271,-0.1326,-0.14,-0.1443,-0.1462,-0.1505,-0.1566,-0.1602,-0.1637,-0.1677,-0.1679,-0.1743,-0.1692,-0.1704,-0.1645,-0.1724,-0.1657,-0.1654,-0.1667,-0.1665,-0.1664,-0.1663,0,0,-0.1132,-0.1178,-0.1185,-0.1211,-0.1294,-0.1346,-0.1414,-0.1497,-0.1517,-0.1591,-0.1627,-0.1712,-0.1716,-0.1735,-0.1765,-0.1795,-0.1803,-0.1764,-0.1763,-0.1674,-0.1765,-0.1666,-0.1652,-0.1825,-0.1826,-0.1826,-0.1697,0,-0.1175,-0.1231,-0.1255,-0.1323,-0.136,-0.1413,-0.1463,-0.1536,-0.1575,-0.1616,-0.1682,-0.1713,-0.1745,-0.1756,-0.1801,-0.1801,-0.1801,-0.1832,-0.1727,-0.1723,-0.16,-0.1649,-0.152,-0.139,-0.1693,-0.1693,-0.1692,0,-0.1222,-0.1244,-0.1298,-0.134,-0.1365,-0.1409,-0.1471,-0.1528,-0.1599,-0.1622,-0.1681,-0.1705,-0.1775,-0.1776,-0.1803,-0.1817,-0.1783,-0.178,-0.1775,-0.1648,-0.162,-0.1367,-0.1372,-0.1381,-0.1687,-0.1687,-0.1688,0,-0.1198,-0.127,-0.1292,-0.1315,-0.1383,-0.1412,-0.1453,-0.1523,-0.1546,-0.1611,-0.1609,-0.1699,-0.1704,-0.1733,-0.1735,-0.1759,-0.1722,-0.1754,-0.1623,-0.1613,-0.1462,-0.1438,-0.1431,-0.1735,-0.1735,-0.1736,-0.1736,0,-0.1203,-0.1228,-0.1273,-0.1282,-0.1307,-0.1378,-0.1402,-0.1449,-0.15,-0.1511,-0.1592,-0.1605,-0.169,-0.1691,-0.1708,-0.1641,-0.1694,-0.1607,-0.1582,-0.1484,-0.1465,-0.1432,-0.1468,-0.1731,-0.1732,-0.1733,-0.1734,0,-0.1166,-0.1195,-0.1217,-0.1271,-0.1283,-0.1298,-0.1345,-0.1359,-0.1408,-0.1421,-0.1432,-0.1509,-0.1493,-0.1535,-0.1547,-0.1559,-0.1499,-0.1491,-0.1335,-0.1295,-0.1192,-0.1236,-0.1181,-0.1152,-0.1323,-0.132,-0.1318,0,-0.1154,-0.1153,-0.1178,-0.1172,-0.1188,-0.1217,-0.1226,-0.1296,-0.1307,-0.1362,-0.1357,-0.135,-0.1308,-0.1277,-0.129,-0.1241,-0.132,-0.1128,-0.1172,-0.115,-0.1183,-0.1249,-0.1236,-0.0987,-0.0982,-0.0978,-0.0974,0,-0.1113,-0.1107,-0.1107,-0.1086,-0.1087,-0.1094,-0.1118,-0.1112,-0.1186,-0.1182,-0.1176,-0.114,-0.1078,-0.0974,-0.092,-0.0932,-0.1098,-0.1038,-0.1076,-0.0958,-0.0969,-0.094,-0.1076,-0.0937,-0.0941,-0.0944,-0.0946,-0.0947,-0.1066,-0.1039,-0.1013,-0.0989,-0.0986,-0.096,-0.0922,-0.0947,-0.0926,-0.0868,-0.0934,-0.0767,-0.0689,-0.0576,-0.064,-0.0662,-0.0771,-0.0675,-0.0734,-0.0806,-0.078,-0.0802,-0.0616,-0.0618,-0.0619,-0.0621,-0.0622,0,-0.1,-0.0954,-0.0923,-0.0874,-0.0828,-0.086,-0.0833,-0.077,-0.0692,-0.0612,-0.0526,-0.0251,-0.0184,-0.0227,-0.03,-0.0365,-0.0438,-0.0428,-0.051,-0.0517,-0.0557,-0.0546,-0.0264,-0.0264,-0.0264,-0.0264,-0.0264,-0.0264,-0.0954,-0.0878,-0.0843,-0.072,-0.069,-0.0591,-0.0545,-0.0455,-0.0359,-0.0115,0.0101,0.0246,0.0196,-0.0052,-0.0239,-0.0279,-0.0365,-0.0336,-0.0446,-0.0496,-0.0525,-0.0554,-0.0553,-0.0277,-0.0278,-0.0348,-0.0349,-0.0349]},{"header":{"parameterUnit":"m.s-1","parameterCategory":2,"la1":30.2991,"la2":30.254,"lo1":-89.0895,"lo2":-89.0444,"dy":0.0017,"dx":0.0017,"nx":28,"ny":28,"refTime":"2024-07-28T03:00:00:Z","depth":"0","parameterNumber":3,"parameterNumberName":"V-component_of_CURRENTS"},"data":[0,0,0,0,0,0,0,0,0,0,0,0,0,0,0,0,0,0,0,0,0,0,0,0,0,0,0,0,0,0,0,0,0,0,0,0,0,0,0,0,0,0,0,0,0,0,0,0,0,0,0,0,0,0,0,0,0,0,-0.0212,-0.0212,0,-0.0158,-0.0157,-0.0156,-0.0064,-0.0063,-0.0062,-0.0061,0.0128,0.0132,0.0136,0,0,0,0,0,0,0,0,0,0,0,0,0,-0.0192,-0.0193,-0.0212,-0.0212,-0.0212,-0.0158,-0.0157,-0.0156,-0.0064,-0.0063,-0.0061,-0.006,0.0127,0.0132,0.0137,0,0,0,0,0,0,0,0,0,0,0,0,0,-0.0169,-0.0193,-0.0212,-0.0165,-0.0161,-0.0159,-0.0157,-0.0155,-0.0064,-0.0063,-0.0061,-0.006,0.0126,0.0131,0.0137,0.0144,0,0,0.0156,0.0159,0,0,0,0,0,0,0,0,-0.0171,-0.0169,-0.0172,-0.0168,-0.0164,-0.0123,-0.0081,-0.0051,-0.0064,-0.0093,-0.0061,-0.0059,0.0051,0.0063,0.0079,0.0153,0.0161,0.0157,0.016,0.0163,0.0165,0,0,0,0,0,0,0,-0.0172,-0.0171,-0.0183,-0.0172,-0.0167,-0.0133,-0.0128,-0.0075,-0.0022,-0.009,-0.0085,-0.0092,0.0056,0.0072,0.0084,0.0164,0.0156,0.0162,0.0166,0.0168,0.0264,0.0263,0,0,0,0,0,0,-0.0198,-0.0173,-0.0185,-0.0182,-0.0172,-0.0136,-0.0129,-0.0131,-0.0025,-0.0011,-0.0093,-0.0088,0.0061,0.0077,0.0091,0.0119,0.0163,0.0169,0.0172,0.0265,0.0264,0.0263,0,0,0,0,0,0,-0.0198,-0.02,-0.0187,-0.0182,-0.0179,-0.0139,-0.0141,-0.0131,-0.0115,-0.0031,-0.0012,-0.0088,0.0063,0.0083,0.0135,0.0127,0.0171,0.0177,0.0266,0.0265,0.0263,0.0167,0,0,0,0,0,0,-0.0198,-0.02,-0.0215,-0.0184,-0.0181,-0.0191,-0.0143,-0.0132,-0.0125,-0.0117,-0.002,-0.0001,0.0066,0.0125,0.0141,0.0136,0.0182,0.0268,0.0266,0.0264,0.0172,0.0163,0.0155,0,0,0,0,0,-0.0197,-0.0236,-0.0216,-0.0218,-0.0201,-0.0193,-0.0187,-0.0147,-0.0127,-0.0125,-0.006,-0.0004,0.0123,0.0129,0.0148,0.0145,0.0269,0.0266,0.0264,0.0176,0.0164,0.0155,0,0,0,0,0,0,-0.0242,-0.023,-0.0207,-0.0241,-0.0218,-0.018,-0.0196,-0.0161,-0.0112,-0.0107,-0.0013,0.001,0.0049,0.0103,0.0108,0.0163,0.0203,0.0204,0.0129,0.012,0.0111,0.0096,0.0187,0,0,0,0,0,-0.026,-0.0279,-0.0253,-0.0278,-0.0279,-0.0237,-0.0233,-0.0202,-0.0159,-0.0136,-0.0061,0.0004,0.005,0.009,0.0141,0.0177,0.0235,0.0184,0.0175,0.0168,0.0166,0.0275,0.0277,0.0254,0.0254,0.0254,0,0,-0.0284,-0.0284,-0.0293,-0.0288,-0.0275,-0.0277,-0.0229,-0.0235,-0.0231,-0.0124,-0.0091,-0.0026,0.0049,0.0087,0.011,0.0137,0.0191,0.0164,0.0158,0.016,0.0273,0.0276,0.0278,0.0253,0.0253,0.0253,0,0,-0.0345,-0.0345,-0.0376,-0.0362,-0.0355,-0.0328,-0.0334,-0.029,-0.027,-0.0232,-0.0164,-0.0096,-0.0018,0.0045,0.008,0.0053,0.0134,0.0058,0.0019,0.0125,0.0129,0.0133,0.0154,0.0161,0.0065,0.0065,0.0065,0,-0.0371,-0.0399,-0.0383,-0.0403,-0.0402,-0.0355,-0.0373,-0.0356,-0.029,-0.0276,-0.0234,-0.0097,-0.0036,0.0022,0.0006,0.0038,0.0081,0.0054,0.0116,0.0122,0.0128,0.0149,0.0158,0.006,0.0061,0.0061,0.0062,0,-0.0436,-0.0456,-0.0482,-0.0481,-0.0479,-0.0492,-0.0465,-0.0455,-0.0417,-0.037,-0.0303,-0.0191,-0.0099,-0.008,-0.0048,0.0013,0.002,0.0085,0.0145,0.0125,0.0147,0.0158,0.0053,0.0055,0.0056,0.0058,0,0,-0.0485,-0.0519,-0.052,-0.0534,-0.0518,-0.0524,-0.0543,-0.053,-0.0528,-0.0437,-0.0391,-0.0306,-0.0218,-0.0173,-0.0095,-0.0009,0.0043,0.004,0.0048,0.0062,0.0217,0.0242,0.0257,0.013,0.0133,0.0135,0.0195,0,-0.0529,-0.0588,-0.0583,-0.0621,-0.0649,-0.0619,-0.0634,-0.0615,-0.0569,-0.0511,-0.0398,-0.0318,-0.0264,-0.0199,-0.0109,0.0033,0.0077,0.0017,0.0233,0.0237,0.0268,0.0274,0.0333,0.0397,0.0207,0.0209,0.021,0,-0.0579,-0.0613,-0.0667,-0.0697,-0.0706,-0.0713,-0.0716,-0.0718,-0.0653,-0.0614,-0.0503,-0.0393,-0.0259,-0.0198,0.0022,-0.0016,0.0063,0.0162,0.0169,0.0243,0.0287,0.0399,0.0425,0.0505,0.0228,0.0227,0.0225,0,-0.0623,-0.0666,-0.0715,-0.072,-0.0745,-0.0767,-0.0771,-0.0741,-0.0743,-0.0653,-0.0606,-0.0427,-0.0301,-0.0143,0.0051,0.0044,0.029,0.0322,0.0396,0.0395,0.0514,0.0521,0.0657,0.0433,0.0432,0.0432,0.0432,0,-0.0672,-0.0706,-0.0739,-0.0767,-0.0809,-0.081,-0.0834,-0.0828,-0.0783,-0.076,-0.0641,-0.0538,-0.0273,-0.0094,0.0045,0.0267,0.0293,0.0384,0.0435,0.0473,0.0475,0.0607,0.0619,0.0434,0.0434,0.0433,0.0433,0,-0.0705,-0.0734,-0.0786,-0.0825,-0.0837,-0.086,-0.0881,-0.0889,-0.0862,-0.0815,-0.0781,-0.0588,-0.033,-0.0105,0.0183,0.0274,0.0539,0.0515,0.0496,0.0544,0.0687,0.069,0.0851,0.0934,0.0614,0.0615,0.0616,0,-0.0721,-0.076,-0.0817,-0.0841,-0.0856,-0.0892,-0.0915,-0.0923,-0.0922,-0.0832,-0.0794,-0.0553,-0.0333,0.0071,0.0313,0.0561,0.0617,0.0679,0.0686,0.0704,0.0746,0.0731,0.0789,0.0774,0.0776,0.0778,0.0779,0,-0.0737,-0.0761,-0.0801,-0.0859,-0.0893,-0.0927,-0.0956,-0.0969,-0.0961,-0.0922,-0.0776,-0.0584,-0.0179,0.022,0.0521,0.0642,0.0759,0.0722,0.0799,0.0922,0.0866,0.0968,0.0651,0.0796,0.0795,0.0793,0.0793,0.0792,-0.0721,-0.0749,-0.0808,-0.0856,-0.0895,-0.0929,-0.0935,-0.0954,-0.0942,-0.0817,-0.0697,-0.035,0.0157,0.0655,0.0729,0.0946,0.0906,0.1021,0.1025,0.1009,0.1096,0.076,0.0937,0.0936,0.0936,0.0935,0.0935,0,-0.0693,-0.0743,-0.0796,-0.0851,-0.0878,-0.0908,-0.0932,-0.0904,-0.0857,-0.0682,-0.0499,0.0166,0.0577,0.0921,0.1232,0.1277,0.1264,0.1294,0.131,0.1362,0.1136,0.1152,0.1317,0.1317,0.1317,0.1317,0.1317,0.1317,-0.0679,-0.0733,-0.0777,-0.0815,-0.0838,-0.0833,-0.0825,-0.0776,-0.0644,-0.0264,0.0138,0.0495,0.1023,0.1309,0.1505,0.1513,0.1607,0.1555,0.1601,0.1448,0.1423,0.1399,0.142,0.1638,0.1639,0.1861,0.1863,0.1865]}],[{"header":{"parameterUnit":"m.s-1","parameterCategory":2,"la1":30.2991,"la2":30.254,"lo1":-89.0895,"lo2":-89.0444,"dy":0.0017,"dx":0.0017,"nx":28,"ny":28,"refTime":"2024-07-28T03:00:00:Z","depth":"2","parameterNumber":2,"parameterNumberName":"U-component_of_CURRENTS"},"data":[0,0,0,0,0,0,0,0,0,0,0,0,0,0,0,0,0,0,0,0,0,0,0,0,0,0,0,0,0,0,0,0,0,0,0,0,0,0,0,0,0,0,0,0,0,0,0,0,0,0,0,0,0,0,0,0,0,0,-0.2932,-0.2935,0,-0.3108,-0.3109,-0.311,-0.3137,-0.3136,-0.3135,-0.3134,-0.304,-0.3038,-0.3036,0,0,0,0,0,0,0,0,0,0,0,0,0,-0.2767,-0.2768,-0.2932,-0.2935,-0.2938,-0.3107,-0.3109,-0.3111,-0.3137,-0.3136,-0.3134,-0.3133,-0.304,-0.3038,-0.3036,0,0,0,0,0,0,0,0,0,0,0,0,0,-0.2873,-0.2768,-0.2932,-0.2976,-0.2983,-0.3107,-0.3109,-0.3111,-0.3137,-0.3136,-0.3134,-0.3133,-0.3041,-0.3038,-0.3036,-0.305,0,0,-0.3029,-0.3028,0,0,0,0,0,0,0,0,-0.2867,-0.2878,-0.2967,-0.2974,-0.2981,-0.3105,-0.3017,-0.308,-0.3137,-0.3071,-0.3134,-0.3132,-0.3042,-0.3039,-0.307,-0.3045,-0.3041,-0.3028,-0.3027,-0.3026,-0.3025,0,0,0,0,0,0,0,-0.2859,-0.2872,-0.2995,-0.297,-0.2979,-0.3039,-0.305,-0.303,-0.3052,-0.3077,-0.3081,-0.3112,-0.3043,-0.3072,-0.3067,-0.304,-0.3028,-0.3026,-0.3025,-0.3024,-0.2923,-0.2922,0,0,0,0,0,0,-0.2845,-0.2864,-0.2989,-0.3001,-0.2927,-0.3042,-0.3055,-0.3061,-0.3058,-0.3061,-0.3113,-0.3113,-0.3077,-0.307,-0.3063,-0.2993,-0.3026,-0.3024,-0.3022,-0.2925,-0.2923,-0.2922,0,0,0,0,0,0,-0.2841,-0.2854,-0.2982,-0.2943,-0.2964,-0.3046,-0.3053,-0.3065,-0.31,-0.309,-0.3085,-0.3136,-0.3076,-0.3067,-0.3027,-0.2992,-0.3023,-0.302,-0.2926,-0.2924,-0.2922,-0.2905,0,0,0,0,0,0,-0.2835,-0.285,-0.29,-0.2941,-0.2966,-0.3045,-0.3056,-0.307,-0.3125,-0.3125,-0.3108,-0.3099,-0.3074,-0.3031,-0.3025,-0.2989,-0.3018,-0.2928,-0.2925,-0.2923,-0.2907,-0.2903,-0.29,0,0,0,0,0,-0.2828,-0.2897,-0.29,-0.2919,-0.3013,-0.3047,-0.3064,-0.3114,-0.3127,-0.314,-0.3116,-0.31,-0.3011,-0.3029,-0.3021,-0.2984,-0.2929,-0.2926,-0.2923,-0.2909,-0.2904,-0.29,0,0,0,0,0,0,-0.2855,-0.2908,-0.2912,-0.2994,-0.301,-0.3053,-0.3114,-0.3123,-0.3127,-0.313,-0.3096,-0.3084,-0.3044,-0.3017,-0.3037,-0.2947,-0.2963,-0.2959,-0.2955,-0.2949,-0.2946,-0.2953,-0.3016,0,0,0,0,0,-0.2882,-0.2937,-0.2963,-0.3023,-0.3038,-0.3071,-0.3113,-0.3123,-0.3124,-0.3129,-0.3103,-0.3068,-0.3031,-0.2993,-0.2974,-0.2922,-0.2874,-0.2889,-0.2885,-0.2882,-0.2882,-0.2761,-0.2746,-0.2913,-0.2913,-0.2913,0,0,-0.2909,-0.2949,-0.2983,-0.3034,-0.306,-0.3049,-0.309,-0.3138,-0.313,-0.3112,-0.3098,-0.3073,-0.3023,-0.2971,-0.2946,-0.2935,-0.2811,-0.2879,-0.2876,-0.2878,-0.2757,-0.274,-0.2725,-0.2911,-0.2911,-0.2912,0,0,-0.2951,-0.3014,-0.3051,-0.3049,-0.309,-0.3092,-0.3095,-0.3117,-0.3142,-0.3124,-0.31,-0.3048,-0.3005,-0.2943,-0.2909,-0.287,-0.2817,-0.2859,-0.2815,-0.2697,-0.2682,-0.2668,-0.2593,-0.2572,-0.2828,-0.2828,-0.2828,0,-0.2984,-0.3018,-0.3066,-0.3061,-0.3062,-0.3088,-0.3067,-0.3097,-0.3097,-0.3107,-0.3111,-0.3017,-0.2988,-0.2881,-0.2869,-0.2859,-0.2797,-0.2837,-0.269,-0.2675,-0.2661,-0.2588,-0.2565,-0.2826,-0.2827,-0.2827,-0.2827,0,-0.2987,-0.303,-0.3047,-0.3028,-0.3023,-0.3033,-0.3028,-0.3055,-0.3076,-0.3074,-0.303,-0.2975,-0.2909,-0.2878,-0.2866,-0.2741,-0.2733,-0.2721,-0.2702,-0.2643,-0.257,-0.2547,-0.2825,-0.2825,-0.2826,-0.2826,0,0,-0.2995,-0.305,-0.3047,-0.3036,-0.301,-0.2994,-0.3,-0.3003,-0.3011,-0.2992,-0.2948,-0.2887,-0.2867,-0.2827,-0.2776,-0.266,-0.2525,-0.2646,-0.264,-0.2573,-0.2278,-0.2221,-0.219,-0.2472,-0.2468,-0.2465,-0.227,0,-0.2976,-0.2991,-0.3,-0.2959,-0.2949,-0.2957,-0.2948,-0.2946,-0.2963,-0.2933,-0.2882,-0.2819,-0.2841,-0.2785,-0.2685,-0.2562,-0.2462,-0.2581,-0.2346,-0.234,-0.2294,-0.216,-0.2041,-0.1851,-0.2247,-0.2243,-0.224,0,-0.2915,-0.296,-0.2953,-0.2948,-0.2939,-0.2906,-0.2893,-0.2897,-0.2883,-0.2894,-0.2826,-0.278,-0.2632,-0.2651,-0.2416,-0.2485,-0.2401,-0.2304,-0.2294,-0.223,-0.2237,-0.1971,-0.1794,-0.2202,-0.2205,-0.2208,-0.221,0,-0.285,-0.2881,-0.2896,-0.2882,-0.2894,-0.2903,-0.2898,-0.2892,-0.288,-0.2848,-0.2791,-0.2666,-0.2542,-0.2419,-0.2281,-0.2326,-0.2006,-0.2041,-0.1913,-0.191,-0.1758,-0.1748,-0.1877,-0.1877,-0.1877,-0.1878,-0.1878,0,-0.2769,-0.2787,-0.2889,-0.2888,-0.2872,-0.2882,-0.2842,-0.2868,-0.2831,-0.2752,-0.2757,-0.2621,-0.2468,-0.2289,-0.2215,-0.1977,-0.1958,-0.1874,-0.1828,-0.1752,-0.1744,-0.2021,-0.204,-0.187,-0.1872,-0.1873,-0.1875,0,-0.267,-0.2749,-0.2769,-0.2838,-0.2839,-0.2822,-0.2772,-0.2747,-0.2769,-0.265,-0.2615,-0.2503,-0.2276,-0.214,-0.1882,-0.1845,-0.1661,-0.16,-0.1548,-0.1499,-0.1673,-0.1694,-0.1415,-0.1411,-0.1407,-0.1404,-0.1402,0,-0.264,-0.2657,-0.2711,-0.2704,-0.2738,-0.2721,-0.2689,-0.2697,-0.2645,-0.2559,-0.2464,-0.2257,-0.2075,-0.1729,-0.1563,-0.1374,-0.1487,-0.1216,-0.1286,-0.1627,-0.1611,-0.1639,-0.1664,-0.1082,-0.1077,-0.1073,-0.107,0,-0.259,-0.262,-0.2633,-0.2609,-0.2582,-0.2528,-0.2494,-0.2423,-0.2415,-0.2312,-0.2147,-0.2011,-0.172,-0.1422,-0.1224,-0.1126,-0.1242,-0.1129,-0.1401,-0.1243,-0.1303,-0.1293,-0.1329,-0.1034,-0.1037,-0.104,-0.1042,-0.1044,-0.255,-0.2523,-0.2526,-0.2468,-0.2429,-0.2339,-0.2231,-0.2174,-0.2028,-0.1835,-0.1818,-0.1587,-0.1528,-0.1112,-0.0967,-0.0832,-0.0934,-0.0922,-0.0938,-0.0957,-0.0978,-0.103,-0.0716,-0.0718,-0.0719,-0.0721,-0.0722,0,-0.2436,-0.241,-0.2381,-0.2289,-0.2179,-0.2209,-0.2082,-0.1934,-0.17,-0.1536,-0.1348,-0.1167,-0.0959,-0.0889,-0.0612,-0.0558,-0.0585,-0.0543,-0.0598,-0.0632,-0.0662,-0.0674,-0.0328,-0.0327,-0.0326,-0.0325,0,0,-0.2367,-0.2286,-0.2255,-0.2054,-0.1998,-0.1807,-0.1704,-0.1493,-0.1321,-0.1014,-0.0869,-0.0876,-0.0892,-0.0669,-0.0565,-0.0383,-0.0508,-0.0347,-0.0657,-0.0754,-0.0784,-0.0864,-0.0916,0,0,0,0,0]},{"header":{"parameterUnit":"m.s-1","parameterCategory":2,"la1":30.2991,"la2":30.254,"lo1":-89.0895,"lo2":-89.0444,"dy":0.0017,"dx":0.0017,"nx":28,"ny":28,"refTime":"2024-07-28T03:00:00:Z","depth":"2","parameterNumber":3,"parameterNumberName":"V-component_of_CURRENTS"},"data":[0,0,0,0,0,0,0,0,0,0,0,0,0,0,0,0,0,0,0,0,0,0,0,0,0,0,0,0,0,0,0,0,0,0,0,0,0,0,0,0,0,0,0,0,0,0,0,0,0,0,0,0,0,0,0,0,0,0,0.0198,0.0202,0,0.0534,0.0539,0.0543,0.0694,0.0693,0.0692,0.0692,0.0856,0.0862,0.0867,0,0,0,0,0,0,0,0,0,0,0,0,0,-0.003,-0.0028,0.0198,0.0202,0.0206,0.0534,0.0539,0.0544,0.0694,0.0693,0.0692,0.0691,0.0855,0.0861,0.0867,0,0,0,0,0,0,0,0,0,0,0,0,0,0.0169,-0.0027,0.0198,0.0316,0.0329,0.0533,0.0539,0.0546,0.0695,0.0693,0.0692,0.0691,0.0853,0.086,0.0868,0.0944,0,0,0.0892,0.0895,0,0,0,0,0,0,0,0,0.0157,0.0177,0.0295,0.0308,0.0323,0.0566,0.0519,0.0668,0.0695,0.0562,0.0692,0.069,0.074,0.0758,0.0835,0.0952,0.0959,0.0893,0.0898,0.0901,0.0903,0,0,0,0,0,0,0,0.0143,0.0165,0.0337,0.0299,0.0316,0.0449,0.0474,0.0551,0.0656,0.0574,0.0584,0.0613,0.0748,0.0827,0.0839,0.0961,0.0893,0.09,0.0904,0.0907,0.1046,0.1045,0,0,0,0,0,0,0.0076,0.0151,0.0326,0.0347,0.0229,0.0452,0.0481,0.0494,0.066,0.0683,0.0613,0.0618,0.0814,0.083,0.0845,0.0837,0.0901,0.0908,0.0913,0.1047,0.1046,0.1045,0,0,0,0,0,0,0.007,0.0088,0.0313,0.0253,0.029,0.0455,0.0471,0.0501,0.057,0.0691,0.0712,0.0647,0.0814,0.0834,0.0901,0.0847,0.0912,0.0919,0.1049,0.1047,0.1045,0.0888,0,0,0,0,0,0,0.0062,0.0084,0.0099,0.0247,0.0291,0.0408,0.0473,0.0509,0.0587,0.0597,0.0727,0.0742,0.0814,0.0889,0.0909,0.0859,0.0925,0.105,0.1048,0.1046,0.0895,0.0881,0.087,0,0,0,0,0,0.0052,0.0072,0.0097,0.012,0.0296,0.0407,0.0443,0.0562,0.0589,0.0618,0.0703,0.0738,0.0888,0.0896,0.0919,0.087,0.1051,0.1048,0.1046,0.09,0.0884,0.087,0,0,0,0,0,0,-0.0016,0.0093,0.0124,0.0175,0.0266,0.043,0.0484,0.055,0.0652,0.0655,0.0754,0.0777,0.081,0.0871,0.0876,0.0904,0.0964,0.0966,0.0845,0.0831,0.0818,0.0788,0.0932,0,0,0,0,0,-0.0031,0.0002,0.0121,0.0154,0.0197,0.0333,0.0402,0.0471,0.0572,0.0619,0.0697,0.0771,0.0827,0.0851,0.0924,0.0955,0.0991,0.093,0.0918,0.0907,0.0898,0.0917,0.0904,0.1037,0.1037,0.1037,0,0,-0.0054,0.0012,0.003,0.0141,0.0227,0.0271,0.0372,0.0456,0.0495,0.0615,0.0681,0.0743,0.083,0.0862,0.0877,0.0899,0.0885,0.0904,0.0893,0.0891,0.0913,0.0899,0.0888,0.1036,0.1036,0.1036,0,0,-0.0087,-0.0029,-0.0008,0.0054,0.0164,0.0238,0.0243,0.0384,0.0455,0.053,0.0603,0.0635,0.0745,0.0782,0.0816,0.0781,0.0828,0.0785,0.069,0.0707,0.0695,0.0686,0.0694,0.0687,0.0767,0.0766,0.0766,0,-0.0117,-0.0078,0.0015,0.0045,0.0083,0.0197,0.0212,0.0306,0.0445,0.0497,0.0519,0.0644,0.0704,0.0724,0.0698,0.0749,0.0767,0.0734,0.0687,0.0679,0.0672,0.0684,0.0678,0.0759,0.076,0.076,0.0761,0,-0.0138,-0.0103,-0.0089,-0.0036,0.0009,0.0049,0.015,0.0221,0.0293,0.0374,0.0434,0.0516,0.0576,0.0579,0.0629,0.0594,0.0625,0.0675,0.0716,0.0649,0.0666,0.0662,0.0747,0.075,0.0753,0.0754,0,0,-0.0222,-0.012,-0.0121,-0.0096,-0.0028,0.0013,0.0061,0.0158,0.0209,0.029,0.0328,0.0384,0.0413,0.0451,0.0492,0.0489,0.0438,0.0536,0.0541,0.0528,0.0459,0.0507,0.0509,0.0473,0.0472,0.0471,0.0483,0,-0.0263,-0.0229,-0.0178,-0.0172,-0.0145,-0.0053,-0.0014,0.0074,0.0163,0.023,0.0293,0.0333,0.0368,0.0369,0.0366,0.0448,0.0425,0.043,0.0542,0.0545,0.0583,0.0506,0.0503,0.0516,0.048,0.0479,0.0479,0,-0.0315,-0.0269,-0.0266,-0.0197,-0.018,-0.0174,-0.0089,-0.0029,0.0084,0.0148,0.0174,0.0231,0.0231,0.0265,0.0319,0.0319,0.0355,0.0405,0.0408,0.0508,0.0587,0.0585,0.0512,0.0474,0.0475,0.0475,0.0475,0,-0.0413,-0.0346,-0.0342,-0.0325,-0.0234,-0.0206,-0.016,-0.0056,-0.0,0.0075,0.0087,0.013,0.0134,0.019,0.0284,0.0291,0.0355,0.0394,0.0464,0.0469,0.0519,0.0529,0.0397,0.0396,0.0396,0.0396,0.0396,0,-0.0485,-0.0475,-0.0373,-0.0364,-0.0344,-0.0271,-0.0246,-0.0159,-0.0091,-0.0066,0.0012,0.0022,0.011,0.0171,0.0252,0.0353,0.0331,0.0428,0.0468,0.0464,0.0469,0.0489,0.05,0.0397,0.0397,0.0397,0.0397,0,-0.0595,-0.0533,-0.0503,-0.0407,-0.0387,-0.0372,-0.0316,-0.0281,-0.0204,-0.0182,-0.0183,-0.0081,0.0021,0.0134,0.0244,0.0312,0.0414,0.0447,0.0432,0.047,0.0517,0.0519,0.0514,0.0515,0.0517,0.0518,0.0519,0,-0.0643,-0.0636,-0.0557,-0.0546,-0.0504,-0.0472,-0.045,-0.0359,-0.0338,-0.0233,-0.0241,-0.0137,-0.0027,0.0173,0.0311,0.0464,0.0454,0.0513,0.0526,0.0485,0.0525,0.0526,0.0526,0.052,0.052,0.0521,0.0522,0,-0.0717,-0.0691,-0.0663,-0.0633,-0.0616,-0.0593,-0.0556,-0.0563,-0.0459,-0.0413,-0.0312,-0.02,0.0019,0.022,0.0417,0.0498,0.0498,0.0533,0.0491,0.0501,0.0495,0.0533,0.0533,0.0528,0.0528,0.0527,0.0527,0.0527,-0.0777,-0.0775,-0.0737,-0.0716,-0.07,-0.0685,-0.0678,-0.0636,-0.0587,-0.0466,-0.0367,-0.0131,0.0038,0.0386,0.0487,0.0577,0.0583,0.0595,0.0591,0.0586,0.0594,0.0593,0.0645,0.0645,0.0645,0.0645,0.0645,0,-0.0832,-0.0821,-0.0814,-0.0776,-0.0777,-0.0737,-0.0722,-0.0693,-0.0634,-0.0439,-0.0293,-0.0052,0.0211,0.0404,0.0572,0.0649,0.062,0.064,0.0592,0.0586,0.0581,0.0587,0.0637,0.0636,0.0636,0.0636,0,0,-0.086,-0.0866,-0.0847,-0.0843,-0.082,-0.0799,-0.0786,-0.072,-0.0573,-0.0381,-0.0156,0.0084,0.0329,0.0422,0.0509,0.0599,0.0566,0.0592,0.0597,0.0526,0.052,0.0559,0.0564,0,0,0,0,0]}],[{"header":{"parameterUnit":"m.s-1","parameterCategory":2,"la1":30.2991,"la2":30.254,"lo1":-89.0895,"lo2":-89.0444,"dy":0.0017,"dx":0.0017,"nx":28,"ny":28,"refTime":"2024-07-28T03:00:00:Z","depth":"4","parameterNumber":2,"parameterNumberName":"U-component_of_CURRENTS"},"data":[0,0,0,0,0,0,0,0,0,0,0,0,0,0,0,0,0,0,0,0,0,0,0,0,0,0,0,0,0,0,0,0,0,0,0,0,0,0,0,0,0,0,0,0,0,0,0,0,0,0,0,0,0,0,0,0,0,0,-0.1136,-0.1136,0,-0.1162,-0.1162,-0.1162,-0.1196,-0.1196,-0.1197,-0.1197,-0.125,-0.125,-0.1251,0,0,0,0,0,0,0,0,0,0,0,0,0,-0.1041,-0.1043,-0.1136,-0.1136,-0.1137,-0.1162,-0.1162,-0.1162,-0.1195,-0.1196,-0.1197,-0.1198,-0.1249,-0.125,-0.1251,0,0,0,0,0,0,0,0,0,0,0,0,0,-0.1075,-0.1043,-0.1136,-0.1157,-0.1159,-0.1162,-0.1162,-0.1162,-0.1195,-0.1196,-0.1197,-0.1198,-0.1249,-0.125,-0.1251,-0.1241,0,0,-0.1255,-0.1256,0,0,0,0,0,0,0,0,-0.1073,-0.1079,-0.1153,-0.1155,-0.1158,-0.1177,-0.1148,-0.119,-0.1195,-0.1181,-0.1197,-0.1198,-0.1228,-0.1231,-0.1232,-0.1243,-0.1245,-0.1255,-0.1256,-0.1257,-0.1257,0,0,0,0,0,0,0,-0.1071,-0.1077,-0.1145,-0.1154,-0.1156,-0.1139,-0.1146,-0.1155,-0.1198,-0.1182,-0.1185,-0.1188,-0.1229,-0.1231,-0.1234,-0.1246,-0.1255,-0.1256,-0.1257,-0.1258,-0.1371,-0.1373,0,0,0,0,0,0,-0.1073,-0.1076,-0.1144,-0.1146,-0.1118,-0.1141,-0.1148,-0.1169,-0.1198,-0.1203,-0.1188,-0.119,-0.1228,-0.1232,-0.1236,-0.1319,-0.1257,-0.1258,-0.1258,-0.1369,-0.1371,-0.1374,0,0,0,0,0,0,-0.1071,-0.1079,-0.1143,-0.1111,-0.1118,-0.1142,-0.1165,-0.1169,-0.12,-0.1202,-0.1208,-0.1218,-0.1229,-0.1234,-0.128,-0.1317,-0.1258,-0.1259,-0.1366,-0.137,-0.1373,-0.1424,0,0,0,0,0,0,-0.1068,-0.1079,-0.1102,-0.1112,-0.112,-0.1144,-0.1165,-0.1169,-0.12,-0.1204,-0.1229,-0.1233,-0.123,-0.1279,-0.1282,-0.1318,-0.126,-0.1363,-0.1368,-0.1372,-0.142,-0.1429,-0.1437,0,0,0,0,0,-0.1065,-0.1082,-0.1103,-0.1112,-0.115,-0.1144,-0.1146,-0.1165,-0.1201,-0.12,-0.1246,-0.1234,-0.1308,-0.1281,-0.1284,-0.1322,-0.1361,-0.1366,-0.1371,-0.1416,-0.1427,-0.1437,0,0,0,0,0,0,-0.1051,-0.1088,-0.1111,-0.1141,-0.1145,-0.115,-0.1161,-0.1182,-0.1217,-0.1228,-0.1255,-0.1262,-0.132,-0.1316,-0.1287,-0.1371,-0.1336,-0.1342,-0.1369,-0.1379,-0.1388,-0.1361,-0.1261,0,0,0,0,0,-0.1061,-0.1083,-0.1107,-0.1126,-0.1139,-0.1161,-0.117,-0.1171,-0.1197,-0.1215,-0.1257,-0.1298,-0.1337,-0.1356,-0.1379,-0.1416,-0.1386,-0.1447,-0.1456,-0.1463,-0.1446,-0.142,-0.1423,-0.1391,-0.1391,-0.1391,0,0,-0.1059,-0.1081,-0.1095,-0.1124,-0.114,-0.1159,-0.1169,-0.1169,-0.1199,-0.1214,-0.1295,-0.1328,-0.1356,-0.1406,-0.1431,-0.141,-0.1467,-0.1469,-0.1475,-0.1454,-0.1425,-0.1428,-0.143,-0.1394,-0.1394,-0.1393,0,0,-0.1051,-0.1093,-0.111,-0.1122,-0.1137,-0.115,-0.1162,-0.1192,-0.1224,-0.1279,-0.1318,-0.1361,-0.1436,-0.1451,-0.1471,-0.1537,-0.1515,-0.1576,-0.1593,-0.1569,-0.157,-0.1571,-0.1569,-0.1568,-0.1577,-0.1578,-0.1578,0,-0.1054,-0.1084,-0.1107,-0.1126,-0.1146,-0.1161,-0.1181,-0.1208,-0.1254,-0.1289,-0.131,-0.1424,-0.1445,-0.1498,-0.1538,-0.1551,-0.1551,-0.1548,-0.1576,-0.1575,-0.1575,-0.1572,-0.1571,-0.1581,-0.158,-0.158,-0.158,0,-0.1063,-0.1089,-0.1098,-0.1146,-0.1165,-0.1168,-0.1212,-0.1248,-0.1306,-0.134,-0.1416,-0.1447,-0.1508,-0.154,-0.1566,-0.1599,-0.1608,-0.1588,-0.1538,-0.158,-0.1577,-0.1575,-0.1585,-0.1584,-0.1583,-0.1582,0,0,-0.1055,-0.1101,-0.1104,-0.1121,-0.1173,-0.1175,-0.1243,-0.1294,-0.134,-0.1395,-0.1461,-0.1531,-0.1552,-0.1576,-0.1608,-0.1598,-0.1615,-0.1611,-0.1608,-0.1589,-0.1594,-0.147,-0.1456,-0.1612,-0.1611,-0.161,-0.1604,0,-0.1058,-0.1083,-0.1122,-0.1149,-0.1164,-0.1214,-0.1278,-0.1321,-0.1382,-0.1449,-0.1477,-0.1546,-0.1567,-0.1605,-0.1601,-0.162,-0.1608,-0.162,-0.1572,-0.157,-0.1437,-0.1447,-0.1608,-0.1602,-0.1601,-0.1601,-0.16,0,-0.1058,-0.1068,-0.1106,-0.1144,-0.1165,-0.1201,-0.1285,-0.1336,-0.1423,-0.1472,-0.1526,-0.1569,-0.1607,-0.1598,-0.1604,-0.1625,-0.1615,-0.1604,-0.1602,-0.1454,-0.1439,-0.1545,-0.1596,-0.1596,-0.1596,-0.1597,-0.1597,0,-0.1014,-0.1052,-0.1083,-0.1099,-0.1162,-0.1205,-0.1253,-0.1346,-0.1402,-0.1487,-0.1535,-0.1576,-0.1609,-0.1594,-0.1595,-0.1618,-0.1568,-0.1583,-0.1451,-0.1444,-0.1535,-0.1534,-0.1544,-0.1544,-0.1544,-0.1544,-0.1544,0,-0.0993,-0.1003,-0.1063,-0.1071,-0.1111,-0.1174,-0.124,-0.1302,-0.1398,-0.1447,-0.1543,-0.1573,-0.1611,-0.1604,-0.1591,-0.1503,-0.1556,-0.1438,-0.1417,-0.1566,-0.1568,-0.1535,-0.1534,-0.1543,-0.1543,-0.1544,-0.1544,0,-0.0936,-0.0982,-0.1005,-0.107,-0.1092,-0.1126,-0.1227,-0.1261,-0.1375,-0.144,-0.1474,-0.1581,-0.1564,-0.1561,-0.1528,-0.1481,-0.1412,-0.1359,-0.1524,-0.1516,-0.132,-0.1323,-0.1232,-0.1228,-0.1224,-0.122,-0.1217,0,-0.0907,-0.0917,-0.0991,-0.1001,-0.1036,-0.1089,-0.1122,-0.1238,-0.1273,-0.142,-0.1431,-0.1482,-0.1518,-0.1381,-0.139,-0.1311,-0.1286,-0.1266,-0.1287,-0.129,-0.1281,-0.129,-0.1298,-0.1211,-0.121,-0.1209,-0.1208,0,-0.084,-0.0894,-0.0913,-0.0935,-0.0969,-0.0996,-0.1048,-0.1079,-0.1202,-0.1314,-0.1346,-0.1354,-0.1325,-0.1297,-0.1223,-0.1175,-0.1291,-0.1224,-0.1233,-0.1253,-0.1263,-0.126,-0.1272,-0.1193,-0.1195,-0.1197,-0.1198,0,-0.0798,-0.0804,-0.0841,-0.0854,-0.0873,-0.0875,-0.0935,-0.0962,-0.1027,-0.1192,-0.1187,-0.1241,-0.1304,-0.1224,-0.1162,-0.1089,-0.1087,-0.107,-0.1088,-0.1103,-0.1057,-0.1052,-0.088,0,0,0,0,0,-0.0747,-0.0738,-0.074,-0.0747,-0.0755,-0.0773,-0.0854,-0.0922,-0.1049,-0.1028,-0.1109,-0.1075,-0.1041,-0.1079,-0.097,-0.1083,-0.1072,-0.0955,-0.1059,-0.1115,-0.1131,-0.1085,0,0,0,0,0,0,-0.0715,-0.0714,-0.0711,-0.0634,-0.0613,-0.0622,-0.0676,-0.0778,-0.0779,-0.0915,-0.0891,-0.099,-0.0951,-0.1052,-0.0936,-0.0937,-0.0978,-0.0982,-0.0979,-0.1106,-0.1121,-0.1134,-0.1092,0,0,0,0,0]},{"header":{"parameterUnit":"m.s-1","parameterCategory":2,"la1":30.2991,"la2":30.254,"lo1":-89.0895,"lo2":-89.0444,"dy":0.0017,"dx":0.0017,"nx":28,"ny":28,"refTime":"2024-07-28T03:00:00:Z","depth":"4","parameterNumber":3,"parameterNumberName":"V-component_of_CURRENTS"},"data":[0,0,0,0,0,0,0,0,0,0,0,0,0,0,0,0,0,0,0,0,0,0,0,0,0,0,0,0,0,0,0,0,0,0,0,0,0,0,0,0,0,0,0,0,0,0,0,0,0,0,0,0,0,0,0,0,0,0,-0.0284,-0.0284,0,-0.03,-0.03,-0.0301,-0.0313,-0.0313,-0.0313,-0.0313,-0.0312,-0.0312,-0.0312,0,0,0,0,0,0,0,0,0,0,0,0,0,-0.0252,-0.0253,-0.0284,-0.0284,-0.0284,-0.03,-0.03,-0.0301,-0.0313,-0.0313,-0.0313,-0.0313,-0.0312,-0.0312,-0.0312,0,0,0,0,0,0,0,0,0,0,0,0,0,-0.0269,-0.0253,-0.0284,-0.0291,-0.0291,-0.03,-0.0301,-0.0301,-0.0313,-0.0313,-0.0313,-0.0313,-0.0312,-0.0312,-0.0312,-0.0314,0,0,-0.0312,-0.0312,0,0,0,0,0,0,0,0,-0.0268,-0.027,-0.029,-0.029,-0.0291,-0.0303,-0.0289,-0.0304,-0.0313,-0.0306,-0.0313,-0.0312,-0.0306,-0.0307,-0.0313,-0.0314,-0.0314,-0.0312,-0.0312,-0.0312,-0.0312,0,0,0,0,0,0,0,-0.0267,-0.0269,-0.0292,-0.029,-0.029,-0.0289,-0.0292,-0.0292,-0.0308,-0.0307,-0.0307,-0.0307,-0.0307,-0.0313,-0.0313,-0.0314,-0.0312,-0.0312,-0.0312,-0.0312,-0.0305,-0.0305,0,0,0,0,0,0,-0.0262,-0.0268,-0.0292,-0.0292,-0.0277,-0.029,-0.0292,-0.0301,-0.0308,-0.0309,-0.0307,-0.0307,-0.0313,-0.0313,-0.0313,-0.0312,-0.0312,-0.0312,-0.0312,-0.0305,-0.0305,-0.0305,0,0,0,0,0,0,-0.0262,-0.0264,-0.0291,-0.0279,-0.0282,-0.029,-0.0299,-0.0301,-0.0312,-0.0308,-0.0308,-0.0316,-0.0312,-0.0312,-0.0316,-0.0312,-0.0312,-0.0312,-0.0305,-0.0305,-0.0305,-0.0313,0,0,0,0,0,0,-0.0261,-0.0264,-0.0273,-0.0279,-0.0282,-0.0309,-0.0299,-0.0301,-0.031,-0.0311,-0.0315,-0.0315,-0.0312,-0.0316,-0.0316,-0.0312,-0.0312,-0.0306,-0.0305,-0.0305,-0.0313,-0.0313,-0.0313,0,0,0,0,0,-0.026,-0.0271,-0.0274,-0.0277,-0.0293,-0.031,-0.0313,-0.0318,-0.031,-0.0326,-0.0318,-0.0315,-0.0313,-0.0316,-0.0316,-0.0312,-0.0306,-0.0305,-0.0305,-0.0313,-0.0313,-0.0313,0,0,0,0,0,0,-0.0266,-0.0274,-0.0277,-0.0292,-0.0305,-0.0312,-0.0321,-0.0321,-0.0328,-0.0328,-0.0318,-0.0318,-0.0319,-0.0314,-0.0318,-0.0308,-0.0306,-0.0306,-0.0313,-0.0313,-0.0313,-0.0314,-0.0312,0,0,0,0,0,-0.027,-0.0282,-0.029,-0.0306,-0.031,-0.0316,-0.0322,-0.033,-0.0333,-0.0337,-0.0334,-0.0326,-0.0316,-0.0314,-0.0313,-0.0311,-0.0277,-0.0306,-0.0306,-0.0306,-0.0306,-0.0264,-0.026,-0.0303,-0.0303,-0.0303,0,0,-0.0281,-0.0283,-0.0294,-0.0308,-0.0315,-0.0331,-0.0321,-0.0339,-0.0347,-0.0334,-0.0343,-0.0332,-0.0317,-0.0314,-0.0313,-0.031,-0.0269,-0.0305,-0.0306,-0.0306,-0.0263,-0.0259,-0.0255,-0.0303,-0.0303,-0.0303,0,0,-0.0305,-0.0307,-0.0325,-0.0335,-0.0348,-0.035,-0.0355,-0.0366,-0.0365,-0.0372,-0.0356,-0.0348,-0.034,-0.0327,-0.0316,-0.0316,-0.0274,-0.0308,-0.0307,-0.0266,-0.0262,-0.0258,-0.0177,-0.0166,-0.0304,-0.0304,-0.0304,0,-0.0317,-0.034,-0.0335,-0.0352,-0.0362,-0.0357,-0.0381,-0.0378,-0.0388,-0.0376,-0.0379,-0.0346,-0.0346,-0.0318,-0.0319,-0.0318,-0.0268,-0.0309,-0.0265,-0.0261,-0.0257,-0.0176,-0.0163,-0.0304,-0.0304,-0.0304,-0.0304,0,-0.035,-0.0373,-0.0383,-0.04,-0.041,-0.0432,-0.0424,-0.0426,-0.0416,-0.0402,-0.0378,-0.0369,-0.0344,-0.034,-0.0332,-0.0296,-0.0259,-0.0273,-0.0265,-0.0253,-0.0168,-0.0155,-0.0305,-0.0305,-0.0305,-0.0305,0,0,-0.0365,-0.0402,-0.0404,-0.0427,-0.0439,-0.0451,-0.045,-0.0442,-0.0427,-0.0417,-0.0388,-0.0373,-0.0349,-0.0335,-0.0316,-0.0285,-0.0214,-0.0265,-0.0262,-0.0183,-0.0078,-0.0096,-0.0082,-0.0213,-0.0211,-0.021,-0.0017,0,-0.0396,-0.0439,-0.0445,-0.0488,-0.0513,-0.0502,-0.0499,-0.0484,-0.0459,-0.0427,-0.0384,-0.0357,-0.0347,-0.0333,-0.0297,-0.024,-0.0185,-0.0263,-0.0103,-0.0097,-0.0115,-0.0072,-0.0206,-0.0008,-0.0005,-0.0002,-0.0001,0,-0.0424,-0.045,-0.0499,-0.0532,-0.0538,-0.0559,-0.0542,-0.0539,-0.0478,-0.0453,-0.0401,-0.0357,-0.0293,-0.0303,-0.017,-0.0212,-0.0144,-0.0098,-0.009,-0.01,-0.0093,-0.003,0.0023,0.0021,0.0019,0.0018,0.0016,0,-0.0433,-0.0485,-0.0524,-0.0539,-0.0569,-0.0581,-0.0587,-0.0547,-0.0529,-0.0463,-0.0428,-0.0342,-0.029,-0.0204,-0.0105,-0.0124,0.0045,0.0028,0.009,0.0092,0.0054,0.0047,0.0122,0.0122,0.0121,0.0121,0.012,0,-0.0456,-0.049,-0.0539,-0.0561,-0.06,-0.0607,-0.0617,-0.06,-0.0556,-0.0516,-0.044,-0.0377,-0.0265,-0.0153,-0.0075,0.006,0.0081,0.0108,0.0134,0.0051,0.0041,0.0066,0.0057,0.0128,0.0126,0.0125,0.0124,0,-0.0463,-0.0494,-0.0547,-0.0593,-0.0613,-0.0636,-0.0656,-0.0646,-0.0599,-0.0543,-0.0517,-0.0377,-0.0224,-0.0103,0.0054,0.0103,0.0215,0.0254,0.0196,0.0214,0.0241,0.0229,0.0365,0.0366,0.0366,0.0367,0.0367,0,-0.0474,-0.0504,-0.057,-0.0603,-0.0634,-0.0671,-0.0687,-0.0673,-0.0656,-0.0536,-0.0501,-0.0335,-0.0235,0.0011,0.0111,0.0289,0.0283,0.0355,0.0259,0.0251,0.0264,0.025,0.0238,0.0369,0.0369,0.0369,0.0369,0,-0.0497,-0.0518,-0.0556,-0.0619,-0.0663,-0.0699,-0.0725,-0.0712,-0.0662,-0.0617,-0.046,-0.0318,-0.0136,0.0029,0.0166,0.0276,0.0309,0.0363,0.0361,0.0271,0.0257,0.0266,0.0253,0.0372,0.0371,0.0371,0.0371,0,-0.0508,-0.0535,-0.0582,-0.0633,-0.0685,-0.0711,-0.0726,-0.0692,-0.0663,-0.054,-0.0481,-0.0281,-0.0162,0.0027,0.015,0.0258,0.0269,0.0273,0.0276,0.0275,0.0158,0.012,0.0233,0,0,0,0,0,-0.0517,-0.0541,-0.0592,-0.0646,-0.0691,-0.0719,-0.0738,-0.0736,-0.0688,-0.0583,-0.0534,-0.0364,-0.0133,-0.0018,0.009,0.0135,0.0264,0.026,0.0264,0.0385,0.0383,0.0253,0,0,0,0,0,0,-0.0522,-0.0565,-0.0587,-0.0641,-0.0674,-0.0719,-0.0731,-0.0704,-0.0645,-0.0572,-0.0442,-0.0358,-0.0135,-0.019,0.0092,0.0128,0.0137,0.0374,0.0375,0.0387,0.0384,0.0382,0.0248,0,0,0,0,0]}]]